Regional Weather Roundup
Issued by NWS

Home | Current Version | Previous Version | Text Only | Print | Product List | Glossary On
Versions: 1 2 3 4 5 6 7 8 9 10 11 12 13 14 15 16 17 18 19 20 21 22 23 24 25 26 27 28 29 30 31 32 33 34 35 36 37 38 39 40 41 42 43 44 45 46 47 48 49 50
286
ASUS43 KDTX 190610
RWRMI
MICHIGAN HOURLY REGIONAL WEATHER ROUNDUP
NATIONAL WEATHER SERVICE DETROIT/PONTIAC MI
200 AM EDT MON AUG 19 2019

NOTE: "FAIR" INDICATES FEW OR NO CLOUDS BELOW 12,000 FEET WITH NO
SIGNIFICANT WEATHER AND/OR OBSTRUCTION TO VISIBILITY.

MIZ047>049-052>055-059>063-066>070-074>076-081>083-190700-
SOUTHEAST LOWER MICHIGAN

CITY           SKY/WX    TMP DP  RH WIND       PRES   REMARKS
ADRIAN         CLOUDY    68  66  93 W7        29.98R
6HR MIN TEMP:  65; 6HR MAX TEMP:  68; 6HR PCP:  0.63;

ALMA           FAIR      63  61  93 SW3       29.92S
6HR MIN TEMP:  63; 6HR MAX TEMP:  76;

ANN ARBOR      CLOUDY    68  66  93 W10       29.95S
BAD AXE        FAIR      67  64  91 SW5       29.88S
6HR MIN TEMP:  67; 6HR MAX TEMP:  77;

CARO           FAIR      67  65  92 SW5       29.90S
DETROIT CITY   FAIR      69  69 100 SW10      29.93S
6HR MIN TEMP:  68; 6HR MAX TEMP:  78; 6HR PCP:  0.33;

DETROIT        CLOUDY    68  66  93 SW8       29.95R
6HR MIN TEMP:  67; 6HR MAX TEMP:  78; 6HR PCP:  1.15;

FLINT          FAIR      69  66  90 S6        29.92R
6HR MIN TEMP:  69; 6HR MAX TEMP:  74; 6HR PCP:  0.02;

GROSSE ILE     FAIR      68  67  94 SW7       29.94R
6HR MIN TEMP:  68; 6HR MAX TEMP:  75; 6HR PCP:  0.80;

HILLSDALE      CLOUDY    67  66  96 S7        29.98S
6HR MIN TEMP:  65; 6HR MAX TEMP:  67; 6HR PCP:  0.71;

HOWELL         FAIR      67  65  91 S5        29.95S
6HR MIN TEMP:  67; 6HR MAX TEMP:  73;


CITY           SKY/WX    TMP DP  RH WIND       PRES   REMARKS
JACKSON        FAIR      67  64  90 S6        29.96R
6HR MIN TEMP:  67; 6HR MAX TEMP:  70;

LAMBERTVILLE   FAIR      69  66  90 CALM      29.95S
6HR MIN TEMP:  68; 6HR MAX TEMP:  80;

LANSING        FAIR      67  63  87 SW7       29.94R
6HR MIN TEMP:  67; 6HR MAX TEMP:  78;

LAPEER         FAIR      69  67  94 SW6       29.92S
6HR MIN TEMP:  69; 6HR MAX TEMP:  76;

MASON          FAIR      67  66  96 SE6       29.95S
6HR MIN TEMP:  67; 6HR MAX TEMP:  75;

MT. CLEMENS    FAIR      68  68 100 SW9       29.91S
6HR MIN TEMP:  67; 6HR MAX TEMP:  76; 6HR PCP:  0.52;

PONTIAC        FAIR      67  65  93 W7        29.93S
6HR MIN TEMP:  67; 6HR MAX TEMP:  73; 6HR PCP:  0.71;

PORT HOPE        N/A     70  64  81 VRB5      29.85R
6HR MIN TEMP:  70; 6HR MAX TEMP:  76;

PORT HURON     CLOUDY    68  66  94 SW3       29.91S
TRI CITIES     FAIR      68  63  84 SW8       29.91R
6HR MIN TEMP:  68; 6HR MAX TEMP:  77;

MIDLAND        FAIR      67  62  84 SW3       29.89S
6HR MIN TEMP:  67; 6HR MAX TEMP:  77;

TROY           MOCLDY    68  67  96 SW6       29.95S
SAGINAW HB     FAIR      68  63  83 SW6       29.90R
$$
MIZ043>046-050>051-056>058-064>065-071>073-077>080-190700-
SOUTHWEST LOWER MICHIGAN

CITY           SKY/WX    TMP DP  RH WIND       PRES   REMARKS
BATTLE CREEK   FAIR      67  66  97 S6        29.95S
6HR MIN TEMP:  67; 6HR MAX TEMP:  74;

BENTON HARBOR  FOG       66  65  96 CALM      29.94R VSB 1/2
BIG RAPIDS     MOCLDY    66  63  89 W6        29.92R
6HR MIN TEMP:  64; 6HR MAX TEMP:  73;

COLDWATER      CLOUDY    68  68 100 CALM      29.96S
FREMONT        FAIR      63  63 100 CALM      29.92R
6HR MIN TEMP:  63; 6HR MAX TEMP:  73;

HOLLAND        FAIR      67  65  93 CALM      29.92S
6HR MIN TEMP:  65; 6HR MAX TEMP:  76;

GRAND RAPIDS   FAIR      67  63  87 SW5       29.93R
6HR MIN TEMP:  66; 6HR MAX TEMP:  76;

IONIA          FAIR      65  63  92 S3        29.92S
6HR MIN TEMP:  65; 6HR MAX TEMP:  74;

KALAMAZOO      FAIR      68  64  87 SW5       29.95S
6HR MIN TEMP:  68; 6HR MAX TEMP:  76;

LUDINGTON      MOCLDY    70  66  87 W6        29.89S
6HR MIN TEMP:  69; 6HR MAX TEMP:  72;

MARSHALL       MOCLDY    69  67  95 S3        29.95S
6HR MIN TEMP:  69; 6HR MAX TEMP:  75;

MOUNT PLEASANT FAIR      66  64  93 W6        29.90R
6HR MIN TEMP:  66; 6HR MAX TEMP:  74;

MUSKEGON       FAIR      67  64  90 SW5       29.92R
6HR MIN TEMP:  66; 6HR MAX TEMP:  74;

SOUTH HAVEN    FAIR      66  66 100 CALM      29.94S
$$
MIZ016>042-190700-
NORTHERN LOWER MICHIGAN

CITY           SKY/WX    TMP DP  RH WIND       PRES   REMARKS
ALPENA         CLOUDY    68  61  78 N9        29.85R
6HR MIN TEMP:  68; 6HR MAX TEMP:  78;

BEAVER ISLAND  FAIR      59  53  80 W3        29.87S
BELLAIRE       MOCLDY    69  56  62 CALM      29.89R
6HR MIN TEMP:  69; 6HR MAX TEMP:  76;

CADILLAC       FAIR      65  62  91 W3        29.90S
CHARLEVOIX     MOCLDY    68  54  60 NW7       29.91R
6HR MIN TEMP:  68; 6HR MAX TEMP:  76;

GAYLORD        MOCLDY    65  58  78 NW6       29.89R
6HR MIN TEMP:  65; 6HR MAX TEMP:  71;

GRAYLING       MOCLDY    64  63  94 W6        29.88R
6HR MIN TEMP:  65; 6HR MAX TEMP:  72;

HARBOR SPRINGS FAIR      64  57  79 W3        29.87R
HOUGHTON LAKE  FAIR      67  62  84 W9G20     29.89S
6HR MIN TEMP:  67; 6HR MAX TEMP:  73;

MANISTEE       CLOUDY    70  66  87 W10       29.89R
OSCODA         FAIR      66  63  89 W5        29.85R
6HR MIN TEMP:  66; 6HR MAX TEMP:  77;

PELLSTON       FAIR      60  53  77 CALM      29.87R
6HR MIN TEMP:  59; 6HR MAX TEMP:  74; 6HR PCP:  0.01;

ROGERS CITY    FAIR      63  56  77 W7        29.86S
TRAVERSE CITY  MOCLDY    69  54  58 N6        29.88R
6HR MIN TEMP:  68; 6HR MAX TEMP:  75; 6HR PCP:  0.01;

$$
MIZ007>008-015-190700-
EASTERN UPPER MICHIGAN

CITY           SKY/WX    TMP DP  RH WIND       PRES   REMARKS
KINROSS        FAIR      56  54  93 W6        29.83S
6HR MIN TEMP:  56; 6HR MAX TEMP:  69; 6HR PCP: TRACE;

MACKINAC ISLAN FAIR      61  55  78 W8        29.85R
6HR MIN TEMP:  61; 6HR MAX TEMP:  72;

NEWBERRY       FAIR      54  51  91 W5        29.83F
6HR MIN TEMP:  54; 6HR MAX TEMP:  69;

S. S. MARIE    FAIR      61  55  81 W7        29.81S
6HR MIN TEMP:  61; 6HR MAX TEMP:  71;

MUNISING         N/A     58  52  80 SW7       29.84R
6HR MIN TEMP:  57; 6HR MAX TEMP:  67;

$$
MIZ004>006-011>014-085-190700-
CENTRAL UPPER MICHIGAN

CITY           SKY/WX    TMP DP  RH WIND       PRES   REMARKS
MANISTIQUE     FAIR      54  52  95 W5        29.86R
6HR MIN TEMP:  53; 6HR MAX TEMP:  74;

ESCANABA       FAIR      53  51  93 W5        29.89R
6HR MIN TEMP:  51; 6HR MAX TEMP:  74;

MENOMINEE      FAIR      59  58  96 W3        29.90R
6HR MIN TEMP:  58; 6HR MAX TEMP:  76;

SAWYER-GWINN   FAIR      53  49  86 W6        29.86R
$$
MIZ001>003-009>011-084-190700-
WESTERN UPPER MICHIGAN

CITY           SKY/WX    TMP DP  RH WIND       PRES   REMARKS
IRON MOUNTAIN  FAIR      55  50  83 NW5       29.88R
6HR MIN TEMP:  52; 6HR MAX TEMP:  70;

HOUGHTON       FAIR      58  50  75 W7        29.83R
6HR MIN TEMP:  58; 6HR MAX TEMP:  64;

COPPER HARBOR    N/A     65  49  56 NW12G22   29.80R
6HR MIN TEMP:  62; 6HR MAX TEMP:  66;

IRONWOOD       FAIR      50  47  89 W6        29.91R
6HR MIN TEMP:  49; 6HR MAX TEMP:  67;

$$

ABBREVIATIONS USED IN REMARKS
   TC - TEMPERATURE IN CELSIUS
  WCI - WIND CHILL INDEX
   HX - HEAT INDEX
  VSB - VISIBILITY





USA.gov is the U.S. government's official web portal to all federal, state and local government web resources and services.